Pope Field Airport, NC

6:19 PM EDT on March 23, 2017 (GMT -0400)
Pope Field Airport

Weather History for KPOB - May, 2013

Change the Weather History Date:

Thursday, May 16, 2013

  Actual Average Record
Temperature  
Mean Temperature 77 °F -  
Max Temperature 89 °F 79 °F 93 °F (1998)
Min Temperature 65 °F 57 °F 44 °F (2016)
Cooling Degree Days 12    
Growing Degree Days 27 (Base 50)    
Moisture  
Dew Point 58 °F    
Average Humidity 55    
Maximum Humidity 81    
Minimum Humidity 27    
Precipitation  
Precipitation 0.00 in - - ()
Sea Level Pressure  
Sea Level Pressure 29.97 in    
Wind  
Wind Speed 8 mph (West)    
Max Wind Speed 15 mph    
Max Gust Speed -    
Visibility 10 miles    
Events      
Averages and records for this station are not official NWS values.
T = Trace of Precipitation, MM = Missing Value Source: NWS Daily Summary

Daily Weather History Graph

Daily Weather History Graph

Search for Another Location

Airport or City:

Trip Planner

Search our weather history database for the weather conditions in past years. The results will help you decide how hot, cold, wet, or windy it might be!

Date:

Astronomy

May. 16, 2013 Rise Set
Actual Time 6:11 AM EDT 8:14 PM EDT
Civil Twilight 5:42 AM EDT 8:42 PM EDT
Nautical Twilight 5:08 AM EDT 9:16 PM EDT
Astronomical Twilight 4:31 AM EDT 9:53 PM EDT
Moon 11:38 AM EDT (5/16) 12:37 AM EDT (5/16)
Length of Visible Light 14h 59m
Length of Day
14h 02m
Waxing Crescent, 35% of the Moon is Illuminated
May 16
Waxing Crescent
May 18
First Quarter
May 25
Full
May 31
Last Quarter
Jun 8
New

Hourly Weather History & Observations

Time (EDT) Temp. Heat Index Dew Point Humidity Pressure Visibility Wind Dir Wind Speed Gust Speed Precip Events Conditions
12:58 AM 74.7 °F - 60.6 °F 61% 29.96 in 10.0 mi SW 6.9 mph - N/A   Clear
1:58 AM 71.4 °F - 61.0 °F 70% 29.96 in 10.0 mi WSW 8.1 mph - N/A   Clear
2:58 AM 69.8 °F - 60.4 °F 72% 29.94 in 10.0 mi SW 6.9 mph - N/A   Clear
3:58 AM 67.8 °F - 60.3 °F 77% 29.93 in 10.0 mi WSW 8.1 mph - N/A   Clear
4:58 AM 66.6 °F - 59.9 °F 79% 29.94 in 10.0 mi WSW 6.9 mph - N/A   Clear
5:58 AM 65.8 °F - 59.7 °F 81% 29.95 in 10.0 mi WSW 8.1 mph - N/A   Clear
6:58 AM 66.2 °F - 59.7 °F 80% 29.96 in 10.0 mi WSW 6.9 mph - N/A   Clear
7:58 AM 70.5 °F - 60.3 °F 70% 29.98 in 10.0 mi West 8.1 mph - N/A   Clear
8:58 AM 74.3 °F - 60.8 °F 63% 29.99 in 10.0 mi West 4.6 mph - N/A   Clear
9:56 AM 80.6 °F 81.5 °F 60.8 °F 51% 29.99 in 10.0 mi WNW 8.1 mph - N/A   Clear
10:56 AM 84.2 °F 83.5 °F 57.2 °F 40% 30.00 in 10.0 mi Variable 4.6 mph - N/A   Clear
11:56 AM 86.0 °F 84.9 °F 57.2 °F 37% 30.00 in 10.0 mi NNW 6.9 mph - N/A   Partly Cloudy
12:56 PM 87.8 °F 85.7 °F 53.6 °F 31% 29.99 in 10.0 mi Variable 5.8 mph - N/A   Partly Cloudy
1:56 PM 89.6 °F 87.3 °F 53.6 °F 29% 29.96 in 7.0 mi WNW 8.1 mph - N/A   Scattered Clouds
2:56 PM 87.8 °F - 50.0 °F 27% 29.95 in 10.0 mi West 10.4 mph - N/A   Mostly Cloudy
3:56 PM 86.0 °F - 51.8 °F 31% 29.95 in 10.0 mi WSW 15.0 mph - N/A   Scattered Clouds
4:56 PM 84.2 °F 83.0 °F 55.4 °F 37% 29.94 in 10.0 mi WSW 15.0 mph - N/A   Partly Cloudy
5:58 PM 83.7 °F 82.8 °F 55.9 °F 39% 29.94 in 10.0 mi West 13.8 mph - N/A   Partly Cloudy
6:58 PM 81.3 °F 81.3 °F 57.4 °F 44% 29.95 in 10.0 mi West 6.9 mph - N/A   Clear
7:58 PM 78.4 °F - 59.4 °F 52% 29.97 in 10.0 mi West 5.8 mph - N/A   Scattered Clouds
8:58 PM 75.7 °F - 59.7 °F 57% 29.99 in 10.0 mi WSW 5.8 mph - N/A   Partly Cloudy
9:58 PM 75.0 °F - 61.2 °F 62% 30.00 in 10.0 mi WSW 6.9 mph - N/A   Clear
10:58 PM 72.9 °F - 61.5 °F 67% 30.01 in 10.0 mi WSW 8.1 mph - N/A   Scattered Clouds
11:58 PM 70.3 °F - 61.3 °F 73% 30.01 in 10.0 mi West 3.5 mph - N/A   Scattered Clouds